Showing default

FLOCK 4BE 34, 60495

Orbit data source: Space-Track

FLOCK 4BE 34, 60495 is a payload satellite owned by Planet (US) in SSO that was launched on Fri, 16 Aug 2024 UTC via an FALCON 9 launch vehicle from the Air Force Western Test Range (AFWTR). Payload-class satellites include a variety of spacecraft equipped with specific instruments for various scientific and technological missions. These include communications satellites like Starlink; space stations such as the ISS; scientific satellites like the Hubble; Earth observation satellites from companies like Planet Labs, Umbra, and HawkEye 360; GPS; miniature CubeSats for education and research; and military/defense satellites.

Loading next visibility...
Identifier
60495, 2024-149AD
Orbit
SSO
Last TLE update
12 hours ago
Origin
Manufacturer
Planet
Mission
Operational Commercial Imaging
Bus & Motor
CUBESAT 3U, Unknown motor
Mass
5.7 kg wet, 5.7 kg dry
Launch date (UTC)
2024-08-16 (11 months ago)
Launch vehicle
FALCON 9
Launch site
Air Force Western Test Range (AFWTR)
Object type
Payload
Rocket body
Debris
Shape & HBR
Box + 2 Pan, 0.3 m
Radar Cross Section
0.035 m², Medium (>0.1 m² and < 1m²)

Expand to show TLE details & history

TLE from 12 hours ago
0 FLOCK 4BE 34
1 60495U 24149AD  25189.77975638  .00006734  00000-0  23818-3 0  9996
2 60495  97.4109 268.1753 0005965  72.3552 287.8339 15.29479168 49642
Epoch: 2025-07-08T18:42Z
TLE epoch observation values (Epoch: 2025-07-08T18:42:50.951Z)
Latitude
-0.00003°
Longitude
60.49317°
Altitude
479.221 km
Speed
7.627 km/s
True Right ascension
17h 52m 42s
True Declination
0° 00' 00"
Sunlit
Object was in full shadow at epoch
Visualization orbit readout
Latitude
-60.19348°
Longitude
74.05402°
Altitude
503.299 km
Speed
7.61 km/s
Apparent Right ascension
08h 02m 08s
Apparent Declination
-81° 20' 07"
Sunlit
Object is in full shadow
Visualization observer readout
Local Sidereal Time
19:10:00
Azimuth
182.929° SSW
Elevation
-48.324°
Doppler factor
1
Orbital elements
Apogee altitude
478.409 km
Perigee altitude
470.234 km
Semi-major axis
6,852.459 km
Eccentricity
0.0006
Inclination
97.4109°
RAAN
268.1753°
Arg. of periapsis
72.3552°
True anomaly
Unknown
Mean anomaly
287.8339°
Eccentric anomaly
Unknown
Mean motion
3.82625 °/min
Orbital period
94.09 mins
BSTAR
0.00023818
Loading maneuver chart data...
Loading SW <> Apogee altitude chart data...
Loading historical data...
Loading historical data...
Loading historical data...
Loading historical data...
Loading historical data...
Loading historical data...
Loading historical data...

FLOCK 4BE 34 Visibility forecast

Observer location: undefined°, undefined°

Span
Click to sort rows by Start time (UTC) header in descending order
Start Az.
Max El. time (UTC)
Max El. Az.
Max El.
End time (UTC)
End Az.
4 mins2025-07-09 17:16:34.647Z54.731° ENE2025-07-09 17:18:34.647Z92.56° ESE16.962°2025-07-09 17:20:34.647Z131.713° SE
4 mins2025-07-09 18:50:34.647Z322.873° NNW2025-07-09 18:51:34.647Z298.769° NW21.847°2025-07-09 18:54:34.647Z236.252° WSW
5 mins2025-07-10 05:23:34.647Z174.551° S2025-07-10 05:25:34.647Z206.755° SW42.634°2025-07-10 05:28:34.647Z343.122° N
|